Location: Ethel Rock
(53.4667°N, 4.5667°W)
Time: 01:15:34
(UTC+00:00)

CZ-2D R/B - Pass Details

Date: 24 October 2020
Orbit: 792 x 845 km, 98.7° (Epoch: 26 November)

Event Time Altitude Azimuth Distance (km) Brightness Sun altitude
Rises 02:51:43 0° 12° (NNE) 3,306 5.9 -36.6°
Reaches altitude 10° 02:54:06 10° 8° (N) 2,373 4.9 -36.3°
Enters shadow 02:55:28 18° 2° (N) 1,865 4.3 -36.1°
